TimeCDT,TemperatureF,Dew PointF,Humidity,Sea Level PressureIn,VisibilityMPH,Wind Direction,Wind SpeedMPH,Gust SpeedMPH,PrecipitationIn,Events,Conditions,WindDirDegrees,DateUTC
12:53 AM,54.0,48.0,80,29.92,-9999.0,ESE,3.5,-,N/A,,Clear,120,2012-10-09 05:53:00
1:53 AM,53.1,48.0,83,29.90,-9999.0,SE,5.8,-,N/A,,Clear,140,2012-10-09 06:53:00
2:53 AM,53.6,48.2,82,29.96,-9999.0,East,5.8,-,N/A,,Clear,100,2012-10-09 07:53:00
3:53 AM,48.9,46.9,93,29.90,-9999.0,East,4.6,-,N/A,,Clear,100,2012-10-09 08:53:00
4:53 AM,51.1,48.9,92,29.88,-9999.0,SE,5.8,-,N/A,,Clear,130,2012-10-09 09:53:00
5:53 AM,51.1,48.9,92,29.88,-9999.0,SE,5.8,-,N/A,,Clear,130,2012-10-09 10:53:00
6:53 AM,48.9,48.0,97,29.90,-9999.0,SE,3.5,-,N/A,,Clear,140,2012-10-09 11:53:00
7:53 AM,46.9,46.0,97,29.93,-9999.0,Calm,Calm,-,N/A,,Clear,0,2012-10-09 12:53:00
8:53 AM,51.1,48.9,92,29.93,8.0,Calm,Calm,-,N/A,,Clear,0,2012-10-09 13:53:00
9:53 AM,57.0,51.1,81,29.95,10.0,Calm,Calm,-,N/A,,Clear,0,2012-10-09 14:53:00
10:53 AM,63.0,51.1,65,29.95,10.0,Calm,Calm,-,N/A,,Clear,0,2012-10-09 15:53:00
11:53 AM,70.0,50.0,49,29.93,10.0,West,4.6,-,N/A,,Clear,260,2012-10-09 16:53:00
12:53 PM,79.0,46.9,32,29.89,10.0,West,5.8,-,N/A,,Clear,270,2012-10-09 17:53:00
1:53 PM,87.1,37.0,17,29.86,10.0,West,6.9,-,N/A,,Clear,280,2012-10-09 18:53:00
2:53 PM,89.1,35.1,15,29.83,10.0,SW,6.9,-,N/A,,Clear,230,2012-10-09 19:53:00
3:53 PM,90.0,34.0,14,29.82,10.0,WSW,8.1,-,N/A,,Clear,250,2012-10-09 20:53:00
4:53 PM,90.0,33.1,13,29.80,10.0,WSW,10.4,-,N/A,,Clear,240,2012-10-09 21:53:00
5:53 PM,89.1,36.0,15,29.79,10.0,South,9.2,-,N/A,,Clear,180,2012-10-09 22:53:00
6:53 PM,86.0,43.0,22,29.80,10.0,South,6.9,-,N/A,,Clear,170,2012-10-09 23:53:00
7:53 PM,75.0,48.9,40,29.83,10.0,SSE,9.2,-,N/A,,Clear,160,2012-10-10 00:53:00
8:53 PM,71.1,48.9,45,29.86,10.0,SE,8.1,-,N/A,,Clear,140,2012-10-10 01:53:00
9:53 PM,70.0,53.1,55,29.88,10.0,SSE,8.1,-,N/A,,Clear,150,2012-10-10 02:53:00
10:53 PM,68.0,54.0,61,29.88,10.0,SE,6.9,-,N/A,,Clear,130,2012-10-10 03:53:00
11:53 PM,66.0,54.0,65,29.88,-9999.0,SE,6.9,-,N/A,,Clear,130,2012-10-10 04:53:00